sat.trackr.live / text

‹ back to catalog

STARLINK-3880

NORAD 52334 · 2022-045D

PAYLOAD ACTIVE UNKNOWN

§ Identity

Operator
Country
US
Launch date
2022-04-29
Launch site
AFETR
Launch vehicle
Mass (kg)
RCS (m²)

Purposes: comms

External: N2YO · Heavens-Above · Gunter

§ Orbital elements

Epoch: 2026-09-19T23:21:21.138048Z

Period
93.90 min
Inclination
53.1628°
Eccentricity
0.0000800
Mean motion
15.33549237 rev/d
Perigee alt
464.7 km
Apogee alt
465.8 km
Semi-major
6,843.4 km
B*
2.9036e-6
RAAN
53.9939°
Arg perigee
82.6752°
Mean anomaly
277.4342°
Rev number
24,499

§ Raw data

STARLINK-38801 52334U 22045D   26262.97316132 -.00000277  00000+0  29036-5 0  99912 52334  53.1628  53.9939 0000800  82.6752 277.4342 15.33549237244999

JSON: /api/v1/satellites/52334 · /tle

For live sub-satellite position, see the globe view (requires WebGL).

§ Visibility from observer

Set your observer location to see the next 7 days of passes ≥ 10°. The values pass through the URL so the page stays shareable.

No JS? Fill the form by hand. The geolocation button needs JavaScript.